Marianna, FL

1:06 AM CDT on July 26, 2017 (GMT -0500)
Marianna Municipal

Weather History for KMAI - November, 2013

Change the Weather History Date:

Saturday, November 30, 2013

  Actual Average Record
Temperature  
Mean Temperature 48 °F 56 °F  
Max Temperature 64 °F 68 °F 83 °F (2016)
Min Temperature 32 °F 45 °F 28 °F (2003)
Degree Days  
Heating Degree Days 17    
Month to date heating degree days 225  
Since 1 July heating degree days 259  
Cooling Degree Days 0    
Month to date cooling degree days 18  
Year to date cooling degree days 2485  
Moisture  
Dew Point 39 °F    
Average Humidity 70    
Maximum Humidity 89    
Minimum Humidity 51    
Precipitation  
Precipitation 0.00 in 0.15 in 0.84 in (2016)
Month to date precipitation 3.69 4.12  
Year to date precipitation 58.64 49.67  
Sea Level Pressure  
Sea Level Pressure 30.37 in    
Wind  
Wind Speed 5 mph (NE)    
Max Wind Speed 12 mph    
Max Gust Speed 14 mph    
Visibility 10 miles    
Events      
T = Trace of Precipitation, MM = Missing Value Source: NWS Daily Summary

Daily Weather History Graph

Daily Weather History Graph

Search for Another Location

Airport or City:

Trip Planner

Search our weather history database for the weather conditions in past years. The results will help you decide how hot, cold, wet, or windy it might be!

Date:

Astronomy

Nov. 30, 2013 Rise Set
Actual Time 6:20 AM CST 4:38 PM CST
Civil Twilight 5:53 AM CST 5:04 PM CST
Nautical Twilight 5:24 AM CST 5:34 PM CST
Astronomical Twilight 4:54 AM CST 6:03 PM CST
Moon 3:39 AM CST (11/30) 2:55 PM CST (11/30)
Length of Visible Light 11h 11m
Length of Day
10h 18m
Waning Crescent, 7% of the Moon is Illuminated
Nov 30
Waning Crescent
Dec 2
New
Dec 9
First Quarter
Dec 17
Full
Dec 25
Last Quarter

Hourly Weather History & Observations

Time (CST) Temp. Windchill Dew Point Humidity Pressure Visibility Wind Dir Wind Speed Gust Speed Precip Events Conditions
12:53 AM 34.0 °F - 30.9 °F 89% 30.42 in 10.0 mi Calm Calm - N/A   Clear
1:53 AM 33.1 °F - 30.9 °F 92% 30.43 in 10.0 mi Calm Calm - N/A   Clear
2:53 AM 34.0 °F - 30.9 °F 89% 30.41 in 10.0 mi Calm Calm - N/A   Clear
3:53 AM 33.1 °F - 30.0 °F 89% 30.41 in 10.0 mi Calm Calm - N/A   Clear
4:53 AM 33.1 °F - 30.9 °F 92% 30.41 in 10.0 mi Calm Calm - N/A   Clear
5:53 AM 35.1 °F 32.2 °F 32.0 °F 89% 30.42 in 10.0 mi North 3.5 mph - N/A   Clear
6:53 AM 37.0 °F - 32.0 °F 82% 30.43 in 10.0 mi Calm Calm - N/A   Scattered Clouds
7:53 AM 44.1 °F 39.5 °F 36.0 °F 73% 30.43 in 10.0 mi NE 8.1 mph - N/A   Overcast
8:53 AM 48.9 °F - 37.0 °F 64% 30.44 in 10.0 mi ENE 6.9 mph - N/A   Scattered Clouds
9:53 AM 51.1 °F - 37.9 °F 61% 30.45 in 10.0 mi NE 9.2 mph - N/A   Overcast
10:53 AM 55.9 °F - 39.9 °F 55% 30.43 in 10.0 mi NE 5.8 mph - N/A   Overcast
11:53 AM 60.1 °F - 43.0 °F 53% 30.39 in 10.0 mi Variable 4.6 mph - N/A   Partly Cloudy
12:53 PM 63.0 °F - 45.0 °F 52% 30.36 in 10.0 mi NE 4.6 mph - N/A   Clear
1:53 PM 64.0 °F - 46.0 °F 52% 30.33 in 10.0 mi ENE 8.1 mph - N/A   Clear
2:53 PM 63.0 °F - 46.0 °F 54% 30.32 in 10.0 mi ENE 11.5 mph - N/A   Clear
3:53 PM 61.0 °F - 46.0 °F 58% 30.31 in 10.0 mi NE 9.2 mph - N/A   Clear
4:53 PM 55.0 °F - 46.0 °F 72% 30.30 in 10.0 mi NE 5.8 mph - N/A   Clear
5:53 PM 54.0 °F - 46.0 °F 75% 30.30 in 10.0 mi ENE 3.5 mph - N/A   Clear
6:53 PM 50.0 °F - 45.0 °F 83% 30.31 in 10.0 mi ENE 4.6 mph - N/A   Clear
7:53 PM 50.0 °F - 44.1 °F 80% 30.32 in 10.0 mi NE 6.9 mph - N/A   Clear
8:53 PM 50.0 °F - 43.0 °F 77% 30.31 in 10.0 mi ENE 6.9 mph - N/A   Partly Cloudy
9:53 PM 46.9 °F - 41.0 °F 80% 30.30 in 10.0 mi NE 5.8 mph - N/A   Clear
10:53 PM 46.9 °F - 39.9 °F 77% 30.30 in 10.0 mi Calm Calm - N/A   Clear
11:53 PM 45.0 °F 42.6 °F 39.0 °F 80% 30.28 in 10.0 mi NE 4.6 mph - N/A   Clear